Skip Page Navigation
NASA JPL Caltech
NASA Logo - Jet Propulsion Laboratory + View the NASA Portal
+ Center for Near-Earth Object Studies
JPL Home Earth Solar System Stars & Galaxies Technology
JPL Solar System Dynamics
BODIES ORBITS EPHEMERIDES TOOLS PHYSICAL DATA DISCOVERY FAQ SITE MAP
IMPORTANT: The SSD Announcement email list is now available. Major changes are coming in the near future, including possible hostname and/or URL changes. To be notified of such changes, subscribe to this email list.

Please visit this page for more details.


JPL Small-Body Database Browser
Search: [ help ]  
3312 Pedersen (1984 SN)
Classification: Main-belt Asteroid          SPK-ID: 2003312
Ephemeris | Orbit Diagram | Orbital Elements | Mission Design | Physical Parameters | Discovery Circumstances | Close-Approach Data ]

[ hide orbit diagram ]

For accurate long-term ephemerides, please instead use our Horizons system.This orbit viewer was implemented using two-body methods, and hence should not be used for determining accurate long-term trajectories (over several years or decades) or planetary encounter circumstances.


[ revert to old Java-based viewer ]

Orbital Elements at Epoch 2458600.5 (2019-Apr-27.0) TDB
Reference: JPL 33 (heliocentric ecliptic J2000)
 Element Value Uncertainty (1-sigma)   Units 
e .1225580607660533 4.1447e-08  
a 3.002807091785443 1.7285e-08 au
q 2.634788877761666 1.2892e-07 au
i 9.664569019041496 4.5163e-06 deg
node 214.4661411884535 2.3906e-05 deg
peri 129.1490381546119 2.8987e-05 deg
M 243.8472823524593 1.7432e-05 deg
tp 2459213.720197873175
(2020-Dec-30.22019787)
9.4321e-05 TDB
period 1900.594972768744
5.20
1.641e-05
4.493e-08
d
yr
n .1894143703198163 1.6355e-09 deg/d
Q 3.370825305809218 1.9403e-08 au
  Orbit Determination Parameters
   # obs. used (total)      2153  
   data-arc span      23946 days (65.56 yr)  
   first obs. used      1953-10-18  
   last obs. used      2019-05-11  
   planetary ephem.      DE431  
   SB-pert. ephem.      SB431-N16  
   condition code      0  
   norm. resid. RMS      .45903  
   source      ORB  
   producer      Otto Matic  
   solution date      2019-May-29 23:01:32  

Additional Information
 Earth MOID = 1.64028 au 
 Jupiter MOID = 2.13711 au 
 T_jup = 3.219 
[ show covariance matrix ]

Ephemeris | Orbit Diagram | Orbital Elements | Mission Design | Physical Parameters | Discovery Circumstances | Close-Approach Data ]

Physical Parameter Table
Parameter Symbol Value Units Sigma Reference Notes
absolute magnitude H 11.5   n/a MPO435729  
diameter diameter 17.004 km 0.126 urn:nasa:pds:neowise_diameters_albedos::2.0[mainbelt] (http://adsabs.harvard.edu/abs/2014ApJ...791..121M)  
rotation period rot_per 24.438 h n/a LCDB (Rev. 2019-January); Warner et al., 2009 Result based on less than full coverage, so that the period may be wrong by 30 percent or so.
Published Reference List:
[Waszczak, A.; Chang, C.-K.; Ofeck, E.O.; Laher, F.; et al. (2015) Astron. J. 150, A75.]
geometric albedo albedo 0.142   0.021 urn:nasa:pds:neowise_diameters_albedos::2.0[mainbelt] (http://adsabs.harvard.edu/abs/2012ApJ...759L...8M)  

3312 Pedersen (1984 SN)          Discovered 1984-Sep-24 by Augustesen, K. at Brorfelde
and P. Jensen and H. J. Fogh Olsen.
Reference: DISCOVERY.DBLast Updated: 2003-08-29

[ show close-approach data ]
Alternate Designations
 1984 SN = 1927 UK = 1953 UN = 1958 UC = 1967 JE = 1974 VH = 1978 LL = 1978 NS7 = 1979 VQ = 1982 FJ2 
Ephemeris | Orbit Diagram | Orbital Elements | Mission Design | Physical Parameters | Discovery Circumstances | Close-Approach Data ]
ABOUT SSD CREDITS/AWARDS PRIVACY/COPYRIGHT GLOSSARY LINKS
FirstGov 2019-Dec-06 20:49 UT
(server date/time)  
NASA Home Page
Site Manager:   Ryan S. Park
Webmaster  Alan B. Chamberlin